TimeCST,TemperatureF,Dew PointF,Humidity,Sea Level PressureIn,VisibilityMPH,Wind Direction,Wind SpeedMPH,Gust SpeedMPH,PrecipitationIn,Events,Conditions,WindDirDegrees,DateUTC
12:14 AM,32.0,32.0,100,29.57,3.0,West,9.2,-,0.01,Snow,Light Snow,280,2012-02-21 06:14:00
12:35 AM,32.0,32.0,100,29.56,4.0,WNW,9.2,-,0.01,Snow,Light Snow,290,2012-02-21 06:35:00
12:55 AM,32.0,32.0,100,29.57,4.0,West,9.2,-,0.01,Snow,Light Snow,280,2012-02-21 06:55:00
1:15 AM,32.0,32.0,100,29.56,7.0,WNW,11.5,-,N/A,Snow,Light Snow,290,2012-02-21 07:15:00
1:34 AM,32.0,32.0,100,29.57,10.0,WNW,9.2,-,N/A,,Overcast,290,2012-02-21 07:34:00
1:55 AM,32.0,32.0,100,29.56,7.0,West,8.1,-,N/A,Snow,Light Snow,280,2012-02-21 07:55:00
2:15 AM,32.0,32.0,100,29.56,7.0,WNW,10.4,-,N/A,Snow,Light Snow,290,2012-02-21 08:15:00
2:35 AM,32.0,32.0,100,29.57,7.0,West,10.4,-,N/A,,Overcast,280,2012-02-21 08:35:00
2:55 AM,32.0,30.2,93,29.56,10.0,West,13.8,23.0,N/A,,Overcast,280,2012-02-21 08:55:00
3:14 AM,32.0,30.2,93,29.55,10.0,WNW,9.2,-,N/A,,Overcast,290,2012-02-21 09:14:00
3:34 AM,30.2,30.2,100,29.55,10.0,West,9.2,-,N/A,,Overcast,270,2012-02-21 09:34:00
3:55 AM,30.2,30.2,100,29.55,10.0,West,10.4,-,N/A,,Overcast,270,2012-02-21 09:55:00
4:14 AM,30.2,30.2,100,29.55,10.0,West,9.2,-,N/A,,Mostly Cloudy,270,2012-02-21 10:14:00
4:34 AM,30.2,30.2,100,29.55,10.0,West,9.2,-,N/A,,Scattered Clouds,270,2012-02-21 10:34:00
4:54 AM,30.2,28.4,93,29.55,10.0,West,9.2,-,N/A,,Clear,270,2012-02-21 10:54:00
5:15 AM,28.4,28.4,100,29.55,10.0,West,5.8,-,N/A,,Clear,260,2012-02-21 11:15:00
5:34 AM,28.4,26.6,93,29.55,10.0,West,8.1,-,N/A,,Clear,260,2012-02-21 11:34:00
6:35 AM,26.6,23.0,86,29.56,10.0,West,11.5,-,N/A,,Scattered Clouds,280,2012-02-21 12:35:00
7:14 AM,24.8,23.0,93,29.57,10.0,West,9.2,-,N/A,,Clear,270,2012-02-21 13:14:00
7:34 AM,24.8,21.2,86,29.57,10.0,West,10.4,-,N/A,,Scattered Clouds,260,2012-02-21 13:34:00
7:54 AM,24.8,23.0,93,29.58,10.0,West,11.5,-,N/A,,Scattered Clouds,270,2012-02-21 13:54:00
8:14 AM,26.6,24.8,93,29.58,10.0,West,11.5,-,N/A,,Scattered Clouds,270,2012-02-21 14:14:00
8:35 AM,28.4,24.8,86,29.59,10.0,West,13.8,-,N/A,,Mostly Cloudy,280,2012-02-21 14:35:00
8:54 AM,28.4,26.6,93,29.59,10.0,WNW,15.0,-,N/A,,Overcast,290,2012-02-21 14:54:00
9:14 AM,28.4,26.6,93,29.60,10.0,West,17.3,21.9,N/A,,Mostly Cloudy,280,2012-02-21 15:14:00
9:35 AM,30.2,26.6,86,29.60,10.0,West,18.4,21.9,N/A,,Mostly Cloudy,280,2012-02-21 15:35:00
9:54 AM,30.2,26.6,86,29.60,10.0,West,16.1,-,N/A,,Overcast,280,2012-02-21 15:54:00
10:14 AM,30.2,26.6,86,29.60,10.0,WNW,15.0,-,N/A,,Mostly Cloudy,290,2012-02-21 16:14:00
10:34 AM,30.2,26.6,86,29.60,10.0,WNW,18.4,23.0,N/A,,Mostly Cloudy,290,2012-02-21 16:34:00
10:55 AM,32.0,26.6,80,29.60,10.0,WNW,20.7,25.3,0.01,,Overcast,290,2012-02-21 16:55:00
11:15 AM,32.0,26.6,80,29.60,10.0,WNW,21.9,32.2,N/A,,Overcast,290,2012-02-21 17:15:00
11:35 AM,32.0,26.6,80,29.60,10.0,WNW,25.3,31.1,N/A,,Overcast,290,2012-02-21 17:35:00
11:54 AM,33.8,26.6,75,29.60,10.0,WNW,21.9,32.2,N/A,,Overcast,290,2012-02-21 17:54:00
12:14 PM,33.8,26.6,75,29.60,10.0,WNW,21.9,26.5,N/A,,Mostly Cloudy,290,2012-02-21 18:14:00
12:35 PM,33.8,26.6,75,29.60,10.0,West,21.9,25.3,N/A,,Scattered Clouds,280,2012-02-21 18:35:00
12:55 PM,33.8,26.6,75,29.59,10.0,West,24.2,-,N/A,,Overcast,280,2012-02-21 18:55:00
1:14 PM,33.8,26.6,75,29.59,10.0,WNW,20.7,26.5,N/A,,Overcast,290,2012-02-21 19:14:00
1:35 PM,33.8,24.8,70,29.59,10.0,WNW,20.7,28.8,N/A,,Mostly Cloudy,290,2012-02-21 19:35:00
2:34 PM,33.8,24.8,70,29.59,10.0,West,20.7,32.2,N/A,,Scattered Clouds,280,2012-02-21 20:34:00
2:54 PM,33.8,24.8,70,29.59,10.0,WNW,21.9,28.8,N/A,,Scattered Clouds,290,2012-02-21 20:54:00
3:14 PM,33.8,24.8,70,29.60,10.0,WNW,19.6,28.8,N/A,,Mostly Cloudy,290,2012-02-21 21:14:00
3:35 PM,33.8,24.8,70,29.60,10.0,WNW,18.4,24.2,N/A,,Overcast,290,2012-02-21 21:35:00
3:54 PM,33.8,24.8,70,29.61,10.0,WNW,16.1,25.3,N/A,,Overcast,290,2012-02-21 21:54:00
4:15 PM,33.8,24.8,70,29.60,10.0,WNW,12.7,-,N/A,,Overcast,300,2012-02-21 22:15:00
4:35 PM,32.0,26.6,80,29.60,10.0,WNW,10.4,-,N/A,,Overcast,290,2012-02-21 22:35:00
4:54 PM,33.8,26.6,75,29.61,10.0,WNW,11.5,17.3,N/A,,Overcast,300,2012-02-21 22:54:00
5:15 PM,33.8,24.8,70,29.60,10.0,WNW,11.5,-,N/A,,Overcast,300,2012-02-21 23:15:00
5:34 PM,32.0,24.8,75,29.60,10.0,NW,9.2,-,N/A,,Overcast,310,2012-02-21 23:34:00
6:15 PM,30.2,24.8,80,29.60,10.0,WNW,5.8,-,N/A,,Overcast,290,2012-02-22 00:15:00
6:34 PM,30.2,26.6,86,29.60,10.0,West,4.6,-,N/A,,Overcast,270,2012-02-22 00:34:00
6:54 PM,28.4,26.6,93,29.61,10.0,Calm,Calm,-,N/A,,Overcast,0,2012-02-22 00:54:00
7:15 PM,28.4,24.8,86,29.61,10.0,NW,3.5,-,N/A,,Scattered Clouds,320,2012-02-22 01:15:00
7:35 PM,26.6,23.0,86,29.61,10.0,NW,3.5,-,N/A,,Clear,310,2012-02-22 01:35:00
7:55 PM,26.6,23.0,86,29.61,10.0,WNW,5.8,-,N/A,,Clear,290,2012-02-22 01:55:00
8:14 PM,26.6,21.2,80,29.60,10.0,NW,4.6,-,N/A,,Clear,310,2012-02-22 02:14:00
8:34 PM,21.2,19.4,93,29.60,10.0,NW,3.5,-,N/A,,Clear,320,2012-02-22 02:34:00
8:54 PM,21.2,19.4,93,29.61,10.0,NW,4.6,-,N/A,,Clear,310,2012-02-22 02:54:00
9:14 PM,19.4,17.6,93,29.60,10.0,West,3.5,-,N/A,,Clear,280,2012-02-22 03:14:00
9:34 PM,19.4,19.4,100,29.60,10.0,West,4.6,-,N/A,,Clear,260,2012-02-22 03:34:00
9:55 PM,19.4,19.4,100,29.59,10.0,Calm,Calm,-,N/A,,Clear,0,2012-02-22 03:55:00
10:15 PM,19.4,19.4,100,29.59,10.0,Calm,Calm,-,N/A,,Clear,0,2012-02-22 04:15:00
10:34 PM,19.4,19.4,100,29.59,10.0,Calm,Calm,-,N/A,,Clear,0,2012-02-22 04:34:00
10:54 PM,19.4,17.6,93,29.58,7.0,Calm,Calm,-,N/A,,Clear,0,2012-02-22 04:54:00
11:35 PM,19.4,17.6,93,29.57,7.0,Calm,Calm,-,N/A,,Clear,0,2012-02-22 05:35:00
11:55 PM,15.8,14.0,93,29.57,0.8,Calm,Calm,-,N/A,,Mist,0,2012-02-22 05:55:00